Regional Weather Roundup
Issued by NWS

Home | Current Version | Previous Version | Graphics & Text | Print | Product List | Glossary On
Versions: 1 2 3 4 5 6 7 8 9 10 11 12 13 14 15 16 17 18 19 20 21 22 23 24 25 26 27 28 29 30 31 32 33 34 35 36 37 38 39 40 41 42 43 44 45 46 47 48 49 50
000
ASUS43 KDMX 232101
RWRIA

WEATHER ROUNDUP FOR IOWA
NATIONAL WEATHER SERVICE DES MOINES IA
400 PM CDT WED AUG 23 2017

NOTE: "FAIR" INDICATES FEW OR NO CLOUDS BELOW 12,000 FEET WITH NO
SIGNIFICANT WEATHER AND/OR OBSTRUCTIONS TO VISIBILITY.

* - THESE STATIONS ARE NOT NWS STATIONS...THUS NOT UNDER NWS
QUALITY CONTROL.  THEY ALSO DO NOT REPORT WEATHER SUCH
AS PRECIPITATION OR FOG.

IAZ001>003-012>014-020>022-031>034-043>046-232200-
   NORTHWEST IOWA

CITY           SKY/WX    TMP DP  RH WIND       PRES   REMARKS
CARROLL *      SUNNY     77  55  47 CALM      30.09F
CHEROKEE *     SUNNY     77  56  48 S8        30.08F
DENISON *      SUNNY     75  54  46 CALM      30.10F
LE MARS *      SUNNY    N/A N/A N/A S10G16    30.05F
ORANGE CITY *  SUNNY     79  59  50 S7        30.06F HX  80
SHELDON *      MOSUNNY   77  59  53 VRB7      30.05F
SIOUX CITY     SUNNY     78  59  51 S10       30.06F
SPENCER        SUNNY     77  53  43 SW6       30.08F
STORM LAKE *   SUNNY     75  55  50 SW8       30.09F
$$

IAZ055>058-069>071-079>083-090>094-232200-
   SOUTHWEST IOWA

CITY           SKY/WX    TMP DP  RH WIND       PRES   REMARKS
ATLANTIC *     SUNNY     77  54  44 VRB3      30.09F
AUDUBON *      SUNNY     77  55  47 CALM      30.11F
CLARINDA *     SUNNY     79  54  41 CALM      30.11F
COUNCIL BLFS * SUNNY     77  55  47 SW6       30.09F
CRESTON *      SUNNY     77  52  41 VRB6      30.11F
HARLAN  *      SUNNY     75  55  50 CALM      30.13F
LAMONI         SUNNY     80  53  39 NW5       30.09F HX  80
RED OAK *      SUNNY     77  57  50 VRB5      30.10F
SHENANDOAH *   SUNNY     77  57  50 SW5       30.10F
$$

IAZ047>049-059>061-072>074-084-232200-
   CENTRAL IOWA

CITY           SKY/WX    TMP DP  RH WIND       PRES   REMARKS
AMES           SUNNY     77  56  48 W7        30.08F
ANKENY *       SUNNY     77  50  38 VRB5      30.09F
BOONE *        SUNNY     75  52  43 N8        30.08F
CHARITON *     SUNNY     77  52  41 NW7       30.08F
DES MOINES     MOSUNNY   80  49  33 N8        30.07F
GRINNELL*      SUNNY     74  53  47 CALM      30.09F
KNOXVILLE *    SUNNY     77  48  36 NE5G13    30.07F
MARSHALLTOWN   SUNNY     77  50  38 NW8       30.08F
NEWTON *       SUNNY     75  50  41 N8        30.08F
PELLA *        SUNNY     78  46  31 N6        30.09F
PERRY *          N/A     77  51  40 W5        30.09F
$$

IAZ004>006-015-016-023>025-035-036-232200-
   NORTH CENTRAL IOWA

CITY           SKY/WX    TMP DP  RH WIND       PRES   REMARKS
ALGONA *       MOSUNNY   75  54  46 CALM      30.08F
CLARION *      SUNNY     75  54  46 W6        30.09F
ESTHERVILLE    PTSUNNY   73  54  51 SE6       30.08F
FORT DODGE *   SUNNY     75  53  46 CALM      30.09F
MASON CITY     SUNNY     75  49  39 CALM      30.10F
FOREST CITY *    N/A     73  48  40 W6        30.09F
WEBSTER CITY * SUNNY     75  52  43 CALM      30.07F
IOWA FALLS *     N/A     76  50  39 NW7       30.10F
$$

IAZ007>011-017>019-026>030-037>042-050>054-066-232200-
   NORTHEAST IOWA

CITY           SKY/WX    TMP DP  RH WIND       PRES   REMARKS
CEDAR RAPIDS   MOSUNNY   77  49  37 NW14      30.06F
CHARLES CITY * SUNNY     75  48  38 NW9       30.08F
CLINTON *      PTSUNNY   75  56  51 NW12G18   30.05F
DECORAH *      PTSUNNY   75  52  43 NW13      30.06F
DUBUQUE        MOSUNNY   74  51  44 NW17G23   30.06F
MONTICELLO *   PTSUNNY   75  54  46 NW9       30.06F
OELWEIN *      MOSUNNY   73  52  46 NW13      30.08F
WATERLOO       MOSUNNY   76  47  35 NW10      30.06F
$$

IAZ064-065-067-068-078-232200-
   EAST CENTRAL IOWA

CITY           SKY/WX    TMP DP  RH WIND       PRES   REMARKS
DAVENPORT      SUNNY     76  52  43 NW10      30.07F
IOWA CITY      SUNNY     78  48  34 NW10G23   30.07F
MUSCATINE *    SUNNY     79  48  34 NW10      30.06F
QUAD CITIES    PTSUNNY   78  49  35 NW15G24   30.04F
$$

IAZ062-063-075>077-085>089-095>099-232200-
   SOUTHEAST IOWA

CITY           SKY/WX    TMP DP  RH WIND       PRES   REMARKS
BURLINGTON     SUNNY     77  52  41 NW9       30.07F
FAIRFIELD *    SUNNY     77  48  36 N8        30.07F
FORT MADISON * SUNNY     75  52  43 NW8       30.08S
KEOKUK *       SUNNY     77  48  36 N8        30.06F
OSKALOOSA *      N/A     77  49  36 NW5       30.08F
OTTUMWA        SUNNY     79  48  33 NW7       30.08F
WASHINGTON *   MOSUNNY   75  54  46 VRB7G14   30.08F
$$

ABBREVIATIONS USED IN REMARKS
   TC - TEMPERATURES IN CELSIUS
  WCI - WIND CHILL INDEX
   HX - HEAT INDEX
  VSB - VISIBILITY
$$





USA.gov is the U.S. government's official web portal to all federal, state and local government web resources and services.